Terminal Aerodrome Forecast
Issued by NWS Wilmington, OH

Home | Current Version | Previous Version | Text Only | Print | Product List | Glossary On
Versions: 1 2 3 4 5 6 7 8 9 10 11 12 13 14 15 16 17 18 19 20 21 22 23 24
507
FTUS41 KILN 161736
TAFCVG
TAF
KCVG 161736Z 1618/1724 19005KT P6SM VCSH SCT040 BKN250
     FM162300 18004KT P6SM SCT060 BKN250
     FM170400 16003KT P6SM BKN100
      TEMPO 1709/1712 5SM BR
     FM171500 20012KT P6SM VCSH BKN050
     FM171900 21012KT P6SM -SHRA VCTS BKN040CB
     FM172300 25010KT P6SM VCSH BKN040=

USA.gov is the U.S. government's official web portal to all federal, state and local government web resources and services.